SCP
0 0 0 0 0 0 0 0 0 0 0 0 0 0 0 0 0 0 0 0 0 0 0 0 0 0 0 0 0 0 0 0 0 0 0 0 0 0 0 0 0 0 0 0 0 0 0
0 0 0 0 0 0 0 0 0 0 0 0 0 0 0 0 0 0 0 0 0 0 0 0 0 0 0 0 0 0 0 0 0 0 0 0 0 0 0 0 0 0 0 0 0 0 0
0 0 0 0 0 0 0 0 0 0 0 0 0 0 0 0 0 0 0 0 0 0 0 0 0 0 0 0 0 0 0 0 0 0 0 0 0 0 0 0 0 0 0 0 0 0 0
0 0 0 0 0 0 0 0 0 0 0 0 0 0 0 0 0 0 0 0 0 0 0 0 0 0 0 0 0 0 0 0 0 0 0 0 0 0 0 0 0 0 0 0 0 0 0
0 0 0 0 0 0 0 0 0 0 0 0 0 0 0 0 0 0 0 0 0 0 0 0 0 0 0 0 0 0 0 0 0 0 0 0 0 0 0 0 0 0 0 0 0 0 0
0 0 0 0 0 0 0 0 0 0 0 0 0 0 0 0 0 0 0 0 0 0 0 0 0 0 0 0 0 0 0 0 0 0 0 0 0 0 0 0 0 0 0 0 0 0 0
0 0 0 0 0 0 0 0 0 0 0 0 0 0 0 0 0 0 0 0 0 0 0 0 0 0 0 0 0 0 0 0 0 0 0 0 0 0 0 0 0 0 0 0 0 0 0
0 0 0 0 0 0 0 0 0 0 0 0 0 0 0 0 0 0 0 0 0 0 0 0 0 0 0 0 0 0 0 0 0 0 0 0 0 0 0 0 0 0 0 0 0 0 0
0 0 0 0 0 0 0 0 0 0 0 0 0 0 0 0 0 0 0 0 0 0 0 0 0 0 0 0 0 0 0 0 0 0 0 0 0 0 0 0 0 0 0 0 0 0 0
0 0 0 0 0 0 0 0 0 0 0 0 0 0 0 0 0 0 0 0 0 0 0 0 0 0 0 -0 0 0 0 0 0 0 0 0 0 0 0 0 0 0 0 0 0 0 0
0 0 0 0 0 0 0 0 0 0 0 0 0 0 0 0 0 0 0 0 0 0 0 0 0 0 0 0 0 0 0 0 0 0 0 0 0 0 0 0 0 0 0 0 0 0 0
0 0 0 0 0 0 0 0 0 0 0 0 0 0 0 0 0 0 0 0 0 0 0 0 0 -0 -0 -0 -0 0 0 0 0 0 0 0 0 0 0 0 0 0 0 0 0 0 0
0 0 0 0 0 0 0 0 0 0 0 0 0 0 0 0 0 0 0 0 0 0 0 0 0 -0 -0 -0 -0 -0 0 -0 0 0 0 0 0 0 0 0 0 0 0 0 0 0 0
0 0 0 0 0 0 0 0 0 0 0 0 0 0 0 0 0 0 0 0 0 0 0 0 0 -0 0 -0 -0 -0 0 0 -0 0 0 0 0 0 0 0 0 0 0 0 0 0 0
0 0 0 0 0 0 0 0 0 0 0 0 0 0 0 0 0 0 0 0 0 0 0 0 0 -0 -0 -0 -0 0 -0 -0 -0 -0 0 0 0 0 0 0 0 0 0 0 0 0 0
0 0 0 0 0 0 0 0 0 0 0 0 0 0 0 0 0 0 0 0 0 0 0 0 0 0 0 0 -0 0 0 0 0 0 0 0 0 0 0 0 0 0 0 0 0 0 0
0 0 0 0 0 0 0 0 0 0 0 0 0 0 0 0 0 0 -0 0 0 0 0 0 0 0 -0 0 -0 0 0 0 0 0 0 0 0 0 0 0 0 0 0 0 0 0 0
0 0 0 0 0 0 0 0 0 0 0 0 0 0 0 0 -0 0 0 0 0 0 0 0 0 0 0 0 0 0 0 -0 0 0 0 0 0 0 0 0 0 0 0 0 0 0 0
0 0 0 0 0 0 0 0 0 0 0 0 0 0 0 -0 -0 0 0 0 0 0 0 0 0 0 0 -0 -0 0 -0 0 -0 0 0 0 0 0 0 0 0 0 0 0 0 0 0
0 0 0 0 0 0 0 0 0 0 0 0 0 0 0 -0 -0 -0 0 0 0 0 0 0 0 0 -0 -0 0 0 -0 0 -0 -0 0 0 0 0 0 0 0 0 0 0 0 0 0
0 0 0 0 0 0 0 0 0 0 0 0 0 0 0 0 0 0 0 0 0 0 0 0 0 -0 -0 -0 0 0 0 -0 -0 0 0 0 0 0 0 0 0 0 0 0 0 0 0
0 0 0 0 0 0 0 0 0 0 0 0 0 0 0 0 0 0 -0 0 0 -0 0 0 0 -0 -0 0 0 0 0 0 0 0 0 0 0 0 0 0 0 0 0 0 0 0 0
0 0 0 0 0 0 0 0 0 0 0 0 0 0 0 0 -0 -0 -0 0 -0 -0 0 0 -0 -0 -0 -0 -0 -0 0 -0 -0 0 0 0 0 0 0 0 0 0 0 0 0 0 0
0 0 0 0 0 0 0 0 0 0 0 0 0 0 0 0 0 -0 -0 0 0 -0 0 0 0 0 0 -0 -0 0 -0 0 -0 0 0 0 0 0 0 0 0 0 0 0 0 0 0
0 0 0 0 0 0 0 0 0 0 0 0 0 0 0 0 0 0 -0 0 0 -0 0 0 -0 -0 -0 -0 0 0 0 0 0 0 0 0 0 0 0 0 0 0 0 0 0 0 0
0 0 0 0 0 0 0 0 0 0 0 0 0 0 0 0 0 0 0 0 0 -0 0 0 0 -0 -0 0 0 0 0 0 0 0 0 0 0 0 0 0 0 0 0 0 0 0 0
0 0 0 0 0 0 0 0 0 0 0 0 0 0 0 0 0 0 0 0 0 0 0 0 -0 0 -0 -0 0 0 0 0 0 0 0 0 0 0 0 0 0 0 0 0 0 0 0
0 0 0 0 0 0 0 0 0 0 0 0 0 0 0 0 0 0 0 0 0 0 0 0 -0 0 0 -0 0 0 0 0 0 0 0 0 0 0 0 0 0 0 0 0 0 0 0
0 0 0 0 0 0 0 0 0 0 0 0 0 0 0 0 0 0 -0 -0 -0 -0 0 0 0 0 0 0 0 0 0 0 0 0 0 0 0 0 0 0 0 0 0 0 0 -0 0
Wind_Speed_500mb
46 47 47 47 49 50 50 51 51 52 52 54 55 57 60 62 63 63 62 63 64 60 56 56 51 38 24 19 56 33 25 28 29 30 35 55 56 45 17 14 16 9 7 24 54 45 34
48 47 48 49 50 51 52 53 55 56 57 58 59 60 62 63 65 66 67 68 67 64 65 59 54 31 35 40 67 36 27 47 58 49 45 55 38 47 28 12 19 15 33 31 21 27 21
48 48 49 50 51 53 55 57 58 58 59 61 62 63 66 70 73 75 76 75 73 71 67 65 56 35 51 80 57 54 55 45 29 27 45 58 25 47 20 6 38 24 6 10 11 29 17
48 48 48 50 54 56 58 59 59 60 62 65 67 68 69 69 71 74 79 78 74 75 74 65 55 36 47 54 70 81 76 76 46 43 43 40 55 30 14 6 4 9 11 18 13 17 16
50 50 53 56 57 58 59 59 60 62 65 69 71 72 73 74 75 77 84 87 77 51 43 35 27 30 28 30 45 39 40 63 56 58 45 25 33 22 6 7 6 7 8 10 5 20 14
52 53 56 59 60 60 60 61 64 67 70 72 75 76 76 77 80 82 92 87 49 33 10 10 10 16 35 35 29 19 13 14 29 31 58 28 21 13 16 16 32 12 11 8 12 15 19
54 56 58 61 62 62 62 64 66 68 70 72 76 79 79 80 83 87 84 65 19 11 13 21 29 48 37 39 24 16 20 21 20 26 28 32 19 42 52 44 26 23 9 17 10 14 11
58 60 63 63 62 64 64 66 68 69 70 73 76 79 82 84 85 71 46 40 30 22 34 59 79 87 100 82 47 75 28 24 20 16 26 15 52 37 19 27 30 27 12 8 3 8 10
60 65 66 63 63 66 67 67 67 69 71 74 77 77 80 83 70 41 41 34 23 28 14 38 52 37 40 28 58 90 64 32 13 20 48 35 10 34 33 33 38 37 29 11 10 5 2
64 65 64 65 66 67 67 65 67 70 73 74 75 79 78 68 31 45 30 40 37 30 9 17 10 3 3 10 13 26 43 61 26 35 38 32 28 48 43 42 34 36 20 11 12 8 5
65 64 64 66 66 66 65 63 68 72 73 76 78 77 58 35 50 45 38 44 43 3 11 10 4 14 15 11 29 3 21 63 52 34 29 24 25 33 45 43 38 14 31 22 7 8 4
64 64 65 65 65 64 61 63 68 70 76 80 79 63 24 44 51 58 51 45 37 5 11 14 2 16 17 32 4 29 22 38 49 38 31 24 34 30 37 39 34 26 27 15 8 8 8
64 64 66 65 64 60 60 64 66 73 80 79 78 46 26 46 54 69 45 34 2 6 16 14 19 17 40 16 11 8 16 22 19 30 40 35 37 29 33 33 34 36 33 7 3 5 10
65 66 65 63 61 58 60 62 66 76 84 81 78 33 24 46 69 52 34 4 2 11 26 26 27 42 19 13 1 5 19 16 22 13 29 31 28 32 34 40 27 25 23 11 12 10 8
66 65 63 63 58 57 59 61 68 77 86 85 76 11 42 59 57 37 11 6 6 11 19 21 31 15 8 11 10 8 5 6 25 8 14 24 17 33 25 20 31 45 21 16 12 3 11
63 64 61 58 59 57 58 60 68 74 85 85 64 18 51 67 30 31 8 8 9 24 27 14 12 10 11 13 15 14 10 5 7 5 8 10 9 36 24 25 18 46 24 17 3 11 11
61 62 59 57 57 57 56 59 67 73 84 80 38 13 45 69 20 21 7 10 28 43 42 9 6 11 17 22 9 9 4 6 15 9 19 5 7 3 27 11 35 20 23 10 10 7 10
58 59 56 55 55 54 53 56 63 69 80 81 30 7 39 67 18 8 14 25 43 28 41 10 11 11 10 14 12 8 8 12 21 1 7 6 5 5 9 13 25 7 27 11 10 5 5
57 56 54 53 52 51 52 54 59 62 66 64 34 14 27 43 14 19 16 24 17 35 34 8 8 5 14 8 8 10 11 13 31 13 9 8 5 10 18 14 14 13 10 10 10 8 11
52 53 53 52 50 49 50 53 57 57 58 46 21 9 16 16 32 18 27 19 34 50 26 26 12 12 13 6 14 11 19 10 9 10 17 7 6 9 8 13 20 27 25 16 11 8 9
51 52 51 51 49 47 47 51 52 52 49 40 22 8 10 12 19 25 31 15 44 31 10 25 10 35 29 8 14 11 13 19 15 17 8 7 7 1 19 32 31 23 31 25 16 11 13
48 50 50 50 49 46 45 47 49 48 47 29 18 12 15 34 31 25 17 20 39 41 17 19 18 43 30 8 10 15 15 8 12 12 9 6 4 2 10 20 17 17 27 31 15 16 19
45 49 51 50 48 46 46 48 45 43 46 20 27 32 19 17 11 17 13 28 49 44 19 31 40 32 22 17 38 41 24 22 12 11 10 10 5 8 7 6 9 13 4 8 11 2 35
43 45 49 48 47 47 46 47 43 36 34 34 35 37 11 10 15 19 34 40 42 44 21 39 43 13 25 67 47 16 11 11 12 6 8 5 7 7 6 5 6 5 4 16 33 18 24
42 43 45 46 45 44 44 45 40 37 31 36 37 24 12 12 29 26 38 32 49 47 22 33 53 58 56 25 8 8 4 4 6 8 11 7 6 7 7 6 6 7 10 6 8 17 25
42 42 45 45 43 42 42 42 39 37 33 37 36 17 23 19 8 41 29 34 19 17 13 22 52 49 31 4 5 5 5 4 6 6 9 12 9 6 4 9 6 2 7 30 3 13 28
42 41 45 47 44 41 41 40 38 37 34 36 37 29 18 20 27 25 19 14 21 10 9 18 52 17 26 8 5 4 2 6 2 2 7 7 4 2 9 7 5 2 8 21 7 15 43
41 42 47 50 44 38 40 38 37 36 32 35 41 17 20 18 56 23 39 45 51 27 9 33 21 5 5 10 5 4 3 5 3 6 13 5 4 5 4 6 7 29 15 6 25 53 59
43 43 49 48 35 36 40 37 35 32 28 27 39 29 28 30 57 66 41 17 22 38 38 15 18 25 8 4 4 6 4 4 3 5 13 5 5 9 10 6 16 35 38 45 53 65 54
Wind_Direction_500mb
4 3 0 359 357 354 352 350 349 347 345 341 338 334 332 331 328 325 322 319 318 318 311 305 302 301 293 250 251 253 259 245 260 268 225 193 186 194 179 191 201 205 219 217 234 237 242
4 2 360 359 357 356 354 352 350 347 345 342 339 338 335 332 330 327 323 320 317 313 306 302 300 289 259 248 280 282 255 255 253 256 234 202 209 197 196 203 184 210 202 229 235 236 228
2 1 1 360 358 355 352 350 350 348 345 342 340 338 336 334 332 329 324 320 315 310 302 298 293 269 254 246 265 269 272 267 242 236 222 218 204 185 192 195 240 250 262 271 208 226 248
3 1 -0 359 355 353 351 351 349 346 343 340 338 336 334 331 330 327 322 318 314 306 295 288 280 255 255 264 283 267 257 251 230 211 210 217 205 214 201 245 79 146 160 233 198 177 237
2 0 358 355 353 351 351 350 346 344 342 339 338 337 336 334 332 328 325 320 321 304 297 282 232 213 261 268 261 280 267 249 246 214 211 185 209 215 209 113 4 230 187 177 180 178 194
359 357 355 353 351 351 350 348 346 344 342 340 338 338 337 335 331 329 325 323 324 308 330 132 171 203 253 253 260 310 299 241 206 210 214 209 197 183 206 187 217 190 157 182 173 203 186
358 356 353 351 350 350 349 347 345 343 341 340 338 338 337 334 331 331 326 334 339 295 238 225 218 231 257 271 239 278 271 154 182 174 183 179 187 205 198 206 218 192 155 185 187 195 149
356 354 352 351 350 349 348 346 345 344 343 340 339 339 336 333 333 334 339 334 315 297 293 278 266 254 260 262 269 253 235 180 176 198 183 167 218 200 189 192 204 232 192 188 252 145 142
354 352 351 350 349 348 347 346 345 344 343 342 341 340 336 334 337 355 345 352 336 323 272 286 255 243 251 239 239 255 224 221 191 191 190 198 240 178 190 185 194 211 207 168 131 64 52
353 350 350 349 349 347 347 348 346 345 344 345 345 343 337 332 359 342 355 334 330 315 286 274 227 314 285 241 225 261 227 214 215 198 195 223 219 181 189 203 185 205 175 157 149 94 187
350 350 349 349 348 348 349 349 347 346 345 349 348 346 342 0 342 347 328 322 327 267 310 321 46 26 313 174 274 112 235 200 213 202 170 207 181 198 200 199 183 198 162 179 143 134 104
349 349 349 349 349 349 351 351 347 347 347 350 350 346 351 349 347 337 329 310 316 240 269 303 43 343 305 307 265 323 250 193 209 198 217 219 181 196 197 197 180 156 160 145 73 107 255
349 349 350 350 351 351 352 352 349 348 346 350 347 342 340 344 340 337 326 314 249 214 320 320 326 342 317 297 288 26 339 172 164 174 204 196 223 201 166 179 195 162 154 119 121 188 216
349 350 351 351 353 353 353 353 351 349 347 348 345 343 354 351 341 336 343 300 277 282 294 323 317 314 288 330 225 117 336 196 225 206 168 188 199 207 185 185 174 183 162 148 154 153 155
349 350 352 354 353 354 353 355 353 351 348 348 345 6 2 351 344 344 6 353 303 311 316 309 310 290 284 328 314 295 148 277 209 200 164 187 217 179 190 158 161 187 195 152 106 168 115
348 349 352 354 353 355 354 356 355 354 351 350 346 349 2 356 349 344 56 306 284 315 305 301 296 302 305 320 318 341 356 227 296 255 6 222 129 177 191 164 165 181 155 159 18 147 126
347 348 352 352 352 355 355 357 358 357 353 354 353 2 359 9 8 21 29 288 303 312 313 289 300 283 278 304 303 295 240 225 201 199 250 315 112 341 176 185 170 148 170 136 136 130 142
346 348 352 352 353 353 355 357 360 359 354 360 357 348 357 10 32 357 341 326 308 310 324 272 273 257 264 301 307 313 308 320 182 0 170 157 124 114 177 174 186 134 169 120 133 172 89
346 347 350 351 353 354 354 354 358 2 4 352 340 303 355 13 17 354 329 320 320 326 327 324 290 333 295 289 289 248 283 324 156 144 182 199 124 129 117 89 210 212 181 142 112 103 186
344 345 348 349 350 352 352 352 355 3 7 3 353 337 336 353 349 341 334 332 335 335 320 328 292 313 305 275 222 293 323 326 53 21 213 200 143 188 178 129 135 189 182 166 136 120 159
344 346 349 349 350 350 349 351 354 1 11 17 17 356 326 315 338 328 326 303 335 343 314 327 314 337 344 326 353 355 350 333 45 16 351 207 168 207 130 137 148 152 172 175 171 159 149
344 346 348 347 348 348 349 349 355 359 4 21 9 345 310 294 298 326 330 332 333 329 318 318 322 327 325 318 343 311 325 330 18 26 311 226 107 73 81 100 118 143 169 178 163 96 68
343 345 348 347 347 344 349 349 354 2 2 2 342 335 289 304 304 328 337 324 322 323 304 308 316 317 314 337 314 299 281 276 274 314 342 19 57 63 39 30 117 78 27 128 107 124 140
340 343 345 345 346 345 348 345 349 1 355 345 342 341 308 288 324 320 312 318 317 317 303 302 319 310 310 318 316 279 239 241 271 334 7 349 50 63 93 32 111 258 231 107 91 52 103
335 338 341 342 343 344 345 342 346 351 350 339 345 334 302 298 307 307 322 318 314 321 322 312 323 322 325 317 321 327 342 47 26 44 17 36 64 71 107 82 163 69 135 130 121 50 128
332 332 335 338 339 341 342 341 343 345 347 333 342 329 320 301 272 315 309 321 315 329 320 304 332 336 347 315 336 4 341 28 351 56 42 54 44 53 98 96 174 44 112 112 88 89 116
330 330 331 334 335 337 341 343 341 340 342 332 331 329 308 270 286 304 304 310 302 322 278 295 335 330 1 338 338 339 342 1 337 175 139 81 50 93 111 100 92 354 340 331 149 157 136
329 328 329 329 332 335 340 339 339 336 340 339 329 318 317 286 292 281 306 295 300 304 307 307 323 3 306 355 341 339 321 7 303 291 122 116 161 80 83 106 112 352 329 115 137 117 124
329 329 329 331 334 334 336 339 338 334 333 335 326 334 316 282 284 307 305 323 304 302 279 288 290 294 304 320 286 301 313 330 328 156 30 64 0 117 40 58 37 52 81 95 116 113 117
Wind_Speed_850mb
46 47 47 47 49 50 50 51 51 52 52 54 55 57 60 62 63 63 62 63 64 60 56 56 51 38 24 19 56 33 25 28 29 30 35 55 56 45 17 14 16 9 7 24 54 45 34
48 47 48 49 50 51 52 53 55 56 57 58 59 60 62 63 65 66 67 68 67 64 65 59 54 31 35 40 67 36 27 47 58 49 45 55 38 47 28 12 19 15 33 31 21 27 21
48 48 49 50 51 53 55 57 58 58 59 61 62 63 66 70 73 75 76 75 73 71 67 65 56 35 51 80 57 54 55 45 29 27 45 58 25 47 20 6 38 24 6 10 11 29 17
48 48 48 50 54 56 58 59 59 60 62 65 67 68 69 69 71 74 79 78 74 75 74 65 55 36 47 54 70 81 76 76 46 43 43 40 55 30 14 6 4 9 11 18 13 17 16
50 50 53 56 57 58 59 59 60 62 65 69 71 72 73 74 75 77 84 87 77 51 43 35 27 30 28 30 45 39 40 63 56 58 45 25 33 22 6 7 6 7 8 10 5 20 14
52 53 56 59 60 60 60 61 64 67 70 72 75 76 76 77 80 82 92 87 49 33 10 10 10 16 35 35 29 19 13 14 29 31 58 28 21 13 16 16 32 12 11 8 12 15 19
54 56 58 61 62 62 62 64 66 68 70 72 76 79 79 80 83 87 84 65 19 11 13 21 29 48 37 39 24 16 20 21 20 26 28 32 19 42 52 44 26 23 9 17 10 14 11
58 60 63 63 62 64 64 66 68 69 70 73 76 79 82 84 85 71 46 40 30 22 34 59 79 87 100 82 47 75 28 24 20 16 26 15 52 37 19 27 30 27 12 8 3 8 10
60 65 66 63 63 66 67 67 67 69 71 74 77 77 80 83 70 41 41 34 23 28 14 38 52 37 40 28 58 90 64 32 13 20 48 35 10 34 33 33 38 37 29 11 10 5 2
64 65 64 65 66 67 67 65 67 70 73 74 75 79 78 68 31 45 30 40 37 30 9 17 10 3 3 10 13 26 43 61 26 35 38 32 28 48 43 42 34 36 20 11 12 8 5
65 64 64 66 66 66 65 63 68 72 73 76 78 77 58 35 50 45 38 44 43 3 11 10 4 14 15 11 29 3 21 63 52 34 29 24 25 33 45 43 38 14 31 22 7 8 4
64 64 65 65 65 64 61 63 68 70 76 80 79 63 24 44 51 58 51 45 37 5 11 14 2 16 17 32 4 29 22 38 49 38 31 24 34 30 37 39 34 26 27 15 8 8 8
64 64 66 65 64 60 60 64 66 73 80 79 78 46 26 46 54 69 45 34 2 6 16 14 19 17 40 16 11 8 16 22 19 30 40 35 37 29 33 33 34 36 33 7 3 5 10
65 66 65 63 61 58 60 62 66 76 84 81 78 33 24 46 69 52 34 4 2 11 26 26 27 42 19 13 1 5 19 16 22 13 29 31 28 32 34 40 27 25 23 11 12 10 8
66 65 63 63 58 57 59 61 68 77 86 85 76 11 42 59 57 37 11 6 6 11 19 21 31 15 8 11 10 8 5 6 25 8 14 24 17 33 25 20 31 45 21 16 12 3 11
63 64 61 58 59 57 58 60 68 74 85 85 64 18 51 67 30 31 8 8 9 24 27 14 12 10 11 13 15 14 10 5 7 5 8 10 9 36 24 25 18 46 24 17 3 11 11
61 62 59 57 57 57 56 59 67 73 84 80 38 13 45 69 20 21 7 10 28 43 42 9 6 11 17 22 9 9 4 6 15 9 19 5 7 3 27 11 35 20 23 10 10 7 10
58 59 56 55 55 54 53 56 63 69 80 81 30 7 39 67 18 8 14 25 43 28 41 10 11 11 10 14 12 8 8 12 21 1 7 6 5 5 9 13 25 7 27 11 10 5 5
57 56 54 53 52 51 52 54 59 62 66 64 34 14 27 43 14 19 16 24 17 35 34 8 8 5 14 8 8 10 11 13 31 13 9 8 5 10 18 14 14 13 10 10 10 8 11
52 53 53 52 50 49 50 53 57 57 58 46 21 9 16 16 32 18 27 19 34 50 26 26 12 12 13 6 14 11 19 10 9 10 17 7 6 9 8 13 20 27 25 16 11 8 9
51 52 51 51 49 47 47 51 52 52 49 40 22 8 10 12 19 25 31 15 44 31 10 25 10 35 29 8 14 11 13 19 15 17 8 7 7 1 19 32 31 23 31 25 16 11 13
48 50 50 50 49 46 45 47 49 48 47 29 18 12 15 34 31 25 17 20 39 41 17 19 18 43 30 8 10 15 15 8 12 12 9 6 4 2 10 20 17 17 27 31 15 16 19
45 49 51 50 48 46 46 48 45 43 46 20 27 32 19 17 11 17 13 28 49 44 19 31 40 32 22 17 38 41 24 22 12 11 10 10 5 8 7 6 9 13 4 8 11 2 35
43 45 49 48 47 47 46 47 43 36 34 34 35 37 11 10 15 19 34 40 42 44 21 39 43 13 25 67 47 16 11 11 12 6 8 5 7 7 6 5 6 5 4 16 33 18 24
42 43 45 46 45 44 44 45 40 37 31 36 37 24 12 12 29 26 38 32 49 47 22 33 53 58 56 25 8 8 4 4 6 8 11 7 6 7 7 6 6 7 10 6 8 17 25
42 42 45 45 43 42 42 42 39 37 33 37 36 17 23 19 8 41 29 34 19 17 13 22 52 49 31 4 5 5 5 4 6 6 9 12 9 6 4 9 6 2 7 30 3 13 28
42 41 45 47 44 41 41 40 38 37 34 36 37 29 18 20 27 25 19 14 21 10 9 18 52 17 26 8 5 4 2 6 2 2 7 7 4 2 9 7 5 2 8 21 7 15 43
41 42 47 50 44 38 40 38 37 36 32 35 41 17 20 18 56 23 39 45 51 27 9 33 21 5 5 10 5 4 3 5 3 6 13 5 4 5 4 6 7 29 15 6 25 53 59
43 43 49 48 35 36 40 37 35 32 28 27 39 29 28 30 57 66 41 17 22 38 38 15 18 25 8 4 4 6 4 4 3 5 13 5 5 9 10 6 16 35 38 45 53 65 54
Wind_Direction_850mb
4 3 0 359 357 354 352 350 349 347 345 341 338 334 332 331 328 325 322 319 318 318 311 305 302 301 293 250 251 253 259 245 260 268 225 193 186 194 179 191 201 205 219 217 234 237 242
4 2 360 359 357 356 354 352 350 347 345 342 339 338 335 332 330 327 323 320 317 313 306 302 300 289 259 248 280 282 255 255 253 256 234 202 209 197 196 203 184 210 202 229 235 236 228
2 1 1 360 358 355 352 350 350 348 345 342 340 338 336 334 332 329 324 320 315 310 302 298 293 269 254 246 265 269 272 267 242 236 222 218 204 185 192 195 240 250 262 271 208 226 248
3 1 -0 359 355 353 351 351 349 346 343 340 338 336 334 331 330 327 322 318 314 306 295 288 280 255 255 264 283 267 257 251 230 211 210 217 205 214 201 245 79 146 160 233 198 177 237
2 0 358 355 353 351 351 350 346 344 342 339 338 337 336 334 332 328 325 320 321 304 297 282 232 213 261 268 261 280 267 249 246 214 211 185 209 215 209 113 4 230 187 177 180 178 194
359 357 355 353 351 351 350 348 346 344 342 340 338 338 337 335 331 329 325 323 324 308 330 132 171 203 253 253 260 310 299 241 206 210 214 209 197 183 206 187 217 190 157 182 173 203 186
358 356 353 351 350 350 349 347 345 343 341 340 338 338 337 334 331 331 326 334 339 295 238 225 218 231 257 271 239 278 271 154 182 174 183 179 187 205 198 206 218 192 155 185 187 195 149
356 354 352 351 350 349 348 346 345 344 343 340 339 339 336 333 333 334 339 334 315 297 293 278 266 254 260 262 269 253 235 180 176 198 183 167 218 200 189 192 204 232 192 188 252 145 142
354 352 351 350 349 348 347 346 345 344 343 342 341 340 336 334 337 355 345 352 336 323 272 286 255 243 251 239 239 255 224 221 191 191 190 198 240 178 190 185 194 211 207 168 131 64 52
353 350 350 349 349 347 347 348 346 345 344 345 345 343 337 332 359 342 355 334 330 315 286 274 227 314 285 241 225 261 227 214 215 198 195 223 219 181 189 203 185 205 175 157 149 94 187
350 350 349 349 348 348 349 349 347 346 345 349 348 346 342 0 342 347 328 322 327 267 310 321 46 26 313 174 274 112 235 200 213 202 170 207 181 198 200 199 183 198 162 179 143 134 104
349 349 349 349 349 349 351 351 347 347 347 350 350 346 351 349 347 337 329 310 316 240 269 303 43 343 305 307 265 323 250 193 209 198 217 219 181 196 197 197 180 156 160 145 73 107 255
349 349 350 350 351 351 352 352 349 348 346 350 347 342 340 344 340 337 326 314 249 214 320 320 326 342 317 297 288 26 339 172 164 174 204 196 223 201 166 179 195 162 154 119 121 188 216
349 350 351 351 353 353 353 353 351 349 347 348 345 343 354 351 341 336 343 300 277 282 294 323 317 314 288 330 225 117 336 196 225 206 168 188 199 207 185 185 174 183 162 148 154 153 155
349 350 352 354 353 354 353 355 353 351 348 348 345 6 2 351 344 344 6 353 303 311 316 309 310 290 284 328 314 295 148 277 209 200 164 187 217 179 190 158 161 187 195 152 106 168 115
348 349 352 354 353 355 354 356 355 354 351 350 346 349 2 356 349 344 56 306 284 315 305 301 296 302 305 320 318 341 356 227 296 255 6 222 129 177 191 164 165 181 155 159 18 147 126
347 348 352 352 352 355 355 357 358 357 353 354 353 2 359 9 8 21 29 288 303 312 313 289 300 283 278 304 303 295 240 225 201 199 250 315 112 341 176 185 170 148 170 136 136 130 142
346 348 352 352 353 353 355 357 360 359 354 360 357 348 357 10 32 357 341 326 308 310 324 272 273 257 264 301 307 313 308 320 182 0 170 157 124 114 177 174 186 134 169 120 133 172 89
346 347 350 351 353 354 354 354 358 2 4 352 340 303 355 13 17 354 329 320 320 326 327 324 290 333 295 289 289 248 283 324 156 144 182 199 124 129 117 89 210 212 181 142 112 103 186
344 345 348 349 350 352 352 352 355 3 7 3 353 337 336 353 349 341 334 332 335 335 320 328 292 313 305 275 222 293 323 326 53 21 213 200 143 188 178 129 135 189 182 166 136 120 159
344 346 349 349 350 350 349 351 354 1 11 17 17 356 326 315 338 328 326 303 335 343 314 327 314 337 344 326 353 355 350 333 45 16 351 207 168 207 130 137 148 152 172 175 171 159 149
344 346 348 347 348 348 349 349 355 359 4 21 9 345 310 294 298 326 330 332 333 329 318 318 322 327 325 318 343 311 325 330 18 26 311 226 107 73 81 100 118 143 169 178 163 96 68
343 345 348 347 347 344 349 349 354 2 2 2 342 335 289 304 304 328 337 324 322 323 304 308 316 317 314 337 314 299 281 276 274 314 342 19 57 63 39 30 117 78 27 128 107 124 140
340 343 345 345 346 345 348 345 349 1 355 345 342 341 308 288 324 320 312 318 317 317 303 302 319 310 310 318 316 279 239 241 271 334 7 349 50 63 93 32 111 258 231 107 91 52 103
335 338 341 342 343 344 345 342 346 351 350 339 345 334 302 298 307 307 322 318 314 321 322 312 323 322 325 317 321 327 342 47 26 44 17 36 64 71 107 82 163 69 135 130 121 50 128
332 332 335 338 339 341 342 341 343 345 347 333 342 329 320 301 272 315 309 321 315 329 320 304 332 336 347 315 336 4 341 28 351 56 42 54 44 53 98 96 174 44 112 112 88 89 116
330 330 331 334 335 337 341 343 341 340 342 332 331 329 308 270 286 304 304 310 302 322 278 295 335 330 1 338 338 339 342 1 337 175 139 81 50 93 111 100 92 354 340 331 149 157 136
329 328 329 329 332 335 340 339 339 336 340 339 329 318 317 286 292 281 306 295 300 304 307 307 323 3 306 355 341 339 321 7 303 291 122 116 161 80 83 106 112 352 329 115 137 117 124
329 329 329 331 334 334 336 339 338 334 333 335 326 334 316 282 284 307 305 323 304 302 279 288 290 294 304 320 286 301 313 330 328 156 30 64 0 117 40 58 37 52 81 95 116 113 117